Back to catalog

FREGAT DEB

LostUNKNOWN
NORAD 46108·DEBRIS·🇷🇺 Russia

Launched Jul 18, 2011 from Baikonur Cosmodrome

Loading…

Next Passes (next 24 hours)

TLE

StaleSource: Space-Track

Epoch: Oct 29, 2022, 21:26 UTC

1 46108U 11037JT  22302.89327025  .05783922  00000-0  71923+0 0  9993
2 46108  51.6994 181.4114 1689997 106.3312 272.9419 11.80220431 89878

Track FREGAT DEB in real time with AllMySat

Download on the App Store